This is the latest recevied weather packets stored in our database for station/object KC1BRV. If no packets are shown the sender has not sent any weather packets the latest 10 day(s).
| Time | Temp. | Humidity | Pressure | Rain* | Wind** | Luminosity | Snow |
|---|---|---|---|---|---|---|---|
| 1788391182 | 18.89° C | 79% | 1021.7 hPa | 0 mm | - | 1 W/m² | - |
| 1788390855 | 19.44° C | 81% | 1021.7 hPa | 0 mm | - | 2 W/m² | - |
| 1788390545 | 19.44° C | 80% | 1021.8 hPa | 0 mm | - | 3 W/m² | - |
| 1788390244 | 19.44° C | 80% | 1022.1 hPa | 0 mm | - | 4 W/m² | - |
| 1788389944 | 19.44° C | 80% | 1022.1 hPa | 0 mm | - | 7 W/m² | - |
| 1788389639 | 19.44° C | 79% | 1022.3 hPa | 0 mm | - | 11 W/m² | - |
| 1788389338 | 20° C | 80% | 1022.2 hPa | 0 mm | - | 17 W/m² | - |
| 1788389038 | 20° C | 79% | 1022 hPa | 0 mm | - | 20 W/m² | - |
| 1788388735 | 20° C | 79% | 1022 hPa | 0 mm | - | 21 W/m² | - |
| 1788388434 | 20° C | 77% | 1022.2 hPa | 0 mm | - | 24 W/m² | - |
| 1788388129 | 20.56° C | 77% | 1022.3 hPa | 0 mm | - | 28 W/m² | - |
| 1788387828 | 20.56° C | 77% | 1022.1 hPa | 0 mm | - | 31 W/m² | - |
| 1788387522 | 20.56° C | 77% | 1022 hPa | 0 mm | - | 33 W/m² | - |
| 1788387221 | 20.56° C | 75% | 1022.1 hPa | 0 mm | - | 38 W/m² | - |
| 1788386917 | 20.56° C | 75% | 1022 hPa | 0 mm | - | 43 W/m² | - |
| 1788386616 | 20.56° C | 75% | 1021.8 hPa | 0 mm | - | 47 W/m² | - |
| 1788386312 | 20.56° C | 75% | 1021.6 hPa | 0 mm | - | 49 W/m² | - |
| 1788386012 | 20.56° C | 75% | 1021.6 hPa | 0 mm | - | 47 W/m² | - |
| 1788385709 | 20.56° C | 75% | 1021.2 hPa | 0 mm | - | 48 W/m² | - |
| 1788385407 | 20.56° C | 75% | 1020.9 hPa | 0 mm | - | 69 W/m² | - |
| 1788385103 | 20.56° C | 76% | 1021 hPa | 0 mm | - | 86 W/m² | - |
| 1788384798 | 20.56° C | 74% | 1021 hPa | 0 mm | - | 84 W/m² | - |
| 1788384496 | 20.56° C | 72% | 1021.2 hPa | 0 mm | - | 85 W/m² | - |
| 1788384203 | 20.56° C | 72% | 1020.8 hPa | 0 mm | - | 86 W/m² | - |
| 1788383890 | 21.11° C | 69% | 1021.1 hPa | 0 mm | - | 85 W/m² | - |
* Rain latest hour (hover to see other rain measurements)
** Current wind speed in m/s (hover to see current wind gust speed)